Simultaneous Nadir Overpasses (SNOs) Predictions

Prediction of SNOs between LANDSAT-8 and NPP Satellite Orbit:

Table of predicted SNOs for the next 14.0 days since TLE Epoch: 1/24/2014
Index Date (LANDSAT-8) Time (LANDSAT-8) Lat,Lon (LANDSAT-8) SZA (LANDSAT-8 ) Date (NPP) Time (NPP) Lat,Lon (NPP) SZA (NPP ) Distance(km) Time Diff (sec)
1 01/24/2014 21:37:04 70.25,-147.43 89.30 01/24/2014 21:36:10 70.24,-147.41 89.31 0.77 54
2 01/24/2014 22:26:34 -70.13, 20.04 90.82 01/24/2014 22:26:51 -70.12, 20.10 90.84 3.04 17
3 01/24/2014 23:16:15 69.26,-173.51 88.35 01/24/2014 23:17:21 69.24,-171.29 88.24 87.59 66
4 01/27/2014 13:53:33 70.19, -31.64 88.58 01/27/2014 13:53:08 70.19, -31.56 88.58 2.90 25
5 01/27/2014 14:43:02 -70.13, 135.91 91.49 01/27/2014 14:43:50 -70.11, 135.88 91.51 2.10 48
6 01/30/2014 05:20:34 -70.26, -83.30 92.06 01/30/2014 05:19:22 -70.27, -83.23 92.04 2.81 72
7 01/30/2014 06:10:01 70.16, 84.20 87.84 01/30/2014 06:10:06 70.14, 84.28 87.82 3.54 5
8 01/30/2014 06:59:33 -69.94,-108.48 92.38 01/30/2014 07:00:45 -69.90,-108.03 92.44 17.55 72
9 02/01/2014 21:37:00 -70.27, 32.59 92.80 02/01/2014 21:36:20 -70.28, 32.53 92.78 2.24 40
10 02/01/2014 22:26:27 70.17,-159.91 87.10 02/01/2014 22:27:04 70.15,-159.97 87.09 2.34 37
11 02/04/2014 13:03:53 70.58, -18.70 86.73 02/04/2014 13:02:42 70.64, -19.60 86.84 33.84 71
12 02/04/2014 13:53:27 -70.25, 148.45 93.60 02/04/2014 13:53:18 -70.23, 148.37 93.61 3.41 9
13 02/04/2014 14:42:55 70.09, -44.14 86.25 02/04/2014 14:44:02 70.12, -44.14 86.26 2.74 67
14 02/07/2014 05:20:25 70.27, 96.72 85.62 02/07/2014 05:19:34 70.29, 96.73 85.65 2.62 51
15 02/07/2014 06:09:54 -70.21, -95.73 94.45 02/07/2014 06:10:16 -70.20, -95.80 94.47 3.09 22




NCC Satellite Simultaneous Nadir Overpasses (SNOs) Prediction Service
